Regional Weather Roundup
Issued by NWS

Home | Current Version | Previous Version | Text Only | Print | Product List | Glossary On
Versions: 1 2 3 4 5 6 7 8 9 10 11 12 13 14 15 16 17 18 19 20 21 22 23 24 25 26 27 28 29 30 31 32 33 34 35 36 37 38 39 40 41 42 43 44 45 46 47 48 49 50
925
ASUS43 KDTX 050801
RWRMI
MICHIGAN HOURLY REGIONAL WEATHER ROUNDUP
NATIONAL WEATHER SERVICE DETROIT/PONTIAC MI
400 AM EDT THU MAY 05 2016

NOTE: "FAIR" INDICATES FEW OR NO CLOUDS BELOW 12,000 FEET WITH NO
SIGNIFICANT WEATHER AND/OR OBSTRUCTION TO VISIBILITY.

MIZ047>049-052>055-059>063-066>070-074>076-081>083-050900-
SOUTHEAST LOWER MICHIGAN

CITY           SKY/WX    TMP DP  RH WIND       PRES   REMARKS
ADRIAN         LGT RAIN  47  45  93 N8        29.74S
ALMA           CLOUDY    43  42  95 N8        29.84S
ANN ARBOR      CLOUDY    47  44  90 N14       29.74S
BAD AXE        PTCLDY    40  40  98 N6        29.82S
CARO           CLEAR     42  41  94 N6        29.80S
DETROIT CITY   CLEAR     45  41  86 N8        29.75R
DETROIT        CLOUDY    48  45  89 N12       29.74S FOG
FLINT          CLOUDY    48  42  80 N12       29.79S
GROSSE ILE     CLOUDY    48  46  93 N8        29.72R FOG
HILLSDALE      CLOUDY    45  44  95 N8        29.75S FOG
HOWELL         CLOUDY    46  44  95 N8        29.78S

CITY           SKY/WX    TMP DP  RH WIND       PRES   REMARKS
JACKSON        CLOUDY    46  44  93 N10G18    29.77S
LAMBERTVILLE   CLOUDY    47  45  92 CALM      29.73S FOG
LANSING        CLOUDY    45  42  89 N12       29.81S
LAPEER         FAIR      42  40  95 N6        29.79R
MASON          CLOUDY    46  43  91 N10       29.79S
MONROE         CLOUDY    48  48 100 NW3       29.72S FOG
MT. CLEMENS    CLEAR     43  43  99 N12       29.74R
PONTIAC        PTCLDY    43  41  93 N10       29.75S FOG
PORT HOPE        N/A     43  40  89 NW8       29.80S
PORT HURON     PTCLDY    43  41  93 N5        29.76S
TRI CITIES     MOCLDY    45  41  86 N9        29.83S
MIDLAND        MOCLDY    43  42  95 N6        29.83S
TROY           PTCLDY    45  43  93 N7        29.77S
SAGINAW HB     MOCLDY    45  43  93 N7        29.81S
$$
MIZ043>046-050>051-056>058-064>065-071>073-077>080-050900-
SOUTHWEST LOWER MICHIGAN

CITY           SKY/WX    TMP DP  RH WIND       PRES   REMARKS
BATTLE CREEK   CLOUDY    46  43  89 N15G22    29.80R
BENTON HARBOR  CLOUDY    44  40  85 VRB7      29.83R
BIG RAPIDS     CLOUDY    41  37  84 N5        29.85S
COLDWATER      CLOUDY    46  46 100 N9        29.76S FOG
FREMONT        CLOUDY    40  37  88 N6        29.86R
HOLLAND        CLOUDY   N/A N/A N/A N8        29.85R
GRAND RAPIDS   CLOUDY    46  42  86 N10       29.84R
IONIA          CLOUDY    44  42  92 N9        29.82S
KALAMAZOO      CLOUDY    47  42  83 N10G21    29.80R
LUDINGTON      CLOUDY    40  35  83 N5        29.90S
MARSHALL       CLOUDY    46  44  93 N6        29.78R
MOUNT PLEASANT CLOUDY    44  42  92 N10G16    29.84
MUSKEGON       CLOUDY    42  35  76 N8        29.87R
$$
MIZ016>042-050900-
NORTHERN LOWER MICHIGAN

CITY           SKY/WX    TMP DP  RH WIND       PRES   REMARKS
ALPENA         MOCLDY    42  40  92 NW5       29.87S
BEAVER ISLAND  PTCLDY    38  36  93 N5        29.93S WCI  34
BELLAIRE       CLOUDY    41  37  83 CALM      29.91S
CADILLAC       CLOUDY    37  35  90 N6        29.87R WCI  33
CHARLEVOIX     CLOUDY    39  37  93 N5        29.94S
FRANKFORT      CLOUDY    39  37  89 CALM      29.91F
GAYLORD        CLOUDY    42  40  92 VRB3      29.88S
HARBOR SPRINGS PTCLDY    37  35  92 CALM      29.91S
HOUGHTON LAKE  CLOUDY    43  41  93 N6        29.87S
MANISTEE       CLOUDY    39  30  70 N5        29.91S
OSCODA         CLEAR     43  41  92 N6        29.84R
PELLSTON       CLEAR     36  34  92 NW3       29.91S
ROGERS CITY    CLOUDY    41  39  93 NW7       29.89S
TRAVERSE CITY  CLOUDY    42  35  76 NE5       29.90S
$$
MIZ007>008-015-050900-
EASTERN UPPER MICHIGAN

CITY           SKY/WX    TMP DP  RH WIND       PRES   REMARKS
KINROSS          N/A     39  37  93 N6        29.90S WCI  35
MACKINAC ISLAN CLEAR     40  40 100 N9        29.91R WCI  34
NEWBERRY       CLEAR     34  33  96 NW5       29.93S WCI  30
S. S. MARIE    CLEAR     42  39  89 NW5       29.90S
MUNISING         N/A     37  34  89 NW7       29.97R WCI  32
$$
MIZ004>006-011>014-085-050900-
CENTRAL UPPER MICHIGAN

CITY           SKY/WX    TMP DP  RH WIND       PRES   REMARKS
MANISTIQUE     CLEAR     33  32  95 N6        29.93F WCI  28
ESCANABA       CLEAR     36  30  80 NW3       29.96S
MENOMINEE      CLEAR     36  30  80 N5        29.98S WCI  32
SAWYER-GWINN   CLEAR     31  29  94 N3        29.95F
$$
MIZ001>003-009>011-084-050900-
WESTERN UPPER MICHIGAN

CITY           SKY/WX    TMP DP  RH WIND       PRES   REMARKS
IRON MOUNTAIN  CLEAR     30  28  92 CALM      29.97S
HOUGHTON       CLEAR     33  28  81 NW3       29.99S
COPPER HARBOR    N/A     33  31  92 W5        30.00S WCI  29
IRONWOOD         N/A     30  28  93 CALM      29.99S
$$

ABBREVIATIONS USED IN REMARKS
   TC - TEMPERATURE IN CELSIUS
  WCI - WIND CHILL INDEX
   HX - HEAT INDEX
  VSB - VISIBILITY





USA.gov is the U.S. government's official web portal to all federal, state and local government web resources and services.